Fort Collins, CO

7:57 PM MST on December 15, 2019 (GMT -0700)
Fort Collins-Loveland Municipal

Weather History for KFNL - November, 2019

Change the Weather History Date:

Tuesday, November 12, 2019

  Actual Average Record
Temperature  
Mean Temperature 34 °F -  
Max Temperature 56 °F - 68 °F (1999)
Min Temperature 12 °F - -5 °F (2014)
Degree Days  
Heating Degree Days 31    
Month to date heating degree days 332  
Cooling Degree Days 0    
Month to date cooling degree days 0  
Moisture  
Dew Point 18 °F    
Average Humidity 58    
Maximum Humidity 92    
Minimum Humidity 24    
Precipitation  
Precipitation 0.00 in - 0.04 in (2010)
Snow  
Snow 0.00 in - - ()
Snow Depth 0.00 in    
Sea Level Pressure  
Sea Level Pressure 30.20 in    
Wind  
Wind Speed 2 mph (SSW)    
Max Wind Speed 8 mph    
Max Gust Speed -    
Visibility 9 miles    
Events Fog    
T = Trace of Precipitation, MM = Missing Value Source: NWS Daily Summary

Daily Weather History Graph

Daily Weather History Graph

Search for Another Location

Airport or City:

Astronomy

Nov. 12, 2019 Rise Set
Actual Time 6:42 AM MST 4:45 PM MST
Civil Twilight 6:13 AM MST 5:14 PM MST
Nautical Twilight 5:40 AM MST 5:47 PM MST
Astronomical Twilight 5:08 AM MST 6:19 PM MST
Moon 5:13 PM MST (11/12) 6:36 AM MST (11/12)
Length of Visible Light 11h 00m
Length of Day
10h 02m
Full, 100% of the Moon is Illuminated
Nov 12
Full
Nov 19
Last Quarter
Nov 26
New
Dec 3
First Quarter
Dec 11
Full

Hourly Weather History & Observations

Time (MST) Temp. Windchill Dew Point Humidity Pressure Visibility Wind Dir Wind Speed Gust Speed Precip Events Conditions
12:56 AM 12.9 °F 6.9 °F 10.0 °F 88% 30.55 in 10.0 mi North 3.5 mph - N/A   Clear
1:56 AM 12.0 °F - 10.0 °F 92% 30.53 in 7.0 mi Calm Calm - N/A   Clear
2:56 AM 12.9 °F 6.9 °F 10.0 °F 88% 30.48 in 9.0 mi North 3.5 mph - N/A   Clear
3:56 AM 12.0 °F 5.9 °F 10.0 °F 92% 30.44 in 10.0 mi NE 3.5 mph - N/A   Clear
4:56 AM 12.0 °F - 10.0 °F 92% 30.42 in 7.0 mi Calm Calm - N/A   Clear
5:56 AM 12.0 °F 5.9 °F 10.0 °F 92% 30.40 in 10.0 mi SSW 3.5 mph - N/A   Clear
6:07 AM 12.2 °F 4.3 °F 10.4 °F 92% 30.23 in 9.0 mi SSW 4.6 mph - N/A   Scattered Clouds
6:10 AM 12.2 °F 4.3 °F 10.4 °F 92% 30.23 in 0.2 mi SSW 4.6 mph - N/A Fog Light Freezing Fog
6:56 AM 12.9 °F 6.9 °F 10.0 °F 88% 30.38 in 0.2 mi South 3.5 mph - N/A Fog Light Freezing Fog
7:33 AM 14.0 °F 6.5 °F 10.4 °F 86% 30.21 in 0.8 mi SSW 4.6 mph - N/A   Mist
7:56 AM 16.0 °F - 14.0 °F 92% 30.38 in 10.0 mi Calm Calm - N/A   Clear
9:56 AM 30.9 °F - 28.0 °F 89% 30.27 in 10.0 mi Calm Calm - N/A   Clear
10:56 AM 36.0 °F - 19.9 °F 52% 30.24 in 10.0 mi Calm Calm - N/A   Clear
11:56 AM 45.0 °F 43.5 °F 24.1 °F 44% 30.16 in 10.0 mi Variable 3.5 mph - N/A   Clear
12:56 PM 53.1 °F - 18.0 °F 25% 30.10 in 10.0 mi Calm Calm - N/A   Clear
1:56 PM 52.0 °F - 21.0 °F 30% 30.08 in 10.0 mi SW 5.8 mph - N/A   Clear
2:56 PM 51.1 °F - 21.9 °F 32% 30.06 in 10.0 mi South 4.6 mph - N/A   Clear
3:56 PM 55.9 °F - 24.1 °F 29% 30.03 in 10.0 mi Calm Calm - N/A   Clear
4:56 PM 46.9 °F - 24.1 °F 41% 30.05 in 10.0 mi Calm Calm - N/A   Clear
5:56 PM 42.1 °F - 23.0 °F 47% 30.06 in 10.0 mi Calm Calm - N/A   Clear
6:56 PM 39.9 °F - 25.0 °F 55% 30.04 in 10.0 mi Calm Calm - N/A   Clear
7:56 PM 35.1 °F 28.6 °F 28.0 °F 76% 30.03 in 10.0 mi South 8.1 mph - N/A   Clear
8:56 PM 37.0 °F - 25.0 °F 62% 30.01 in 10.0 mi Calm Calm - N/A   Clear
9:56 PM 37.0 °F - 25.0 °F 62% 29.95 in 10.0 mi Calm Calm - N/A   Clear
10:56 PM 37.9 °F - 30.0 °F 73% 29.89 in 10.0 mi Calm Calm - N/A   Clear
11:56 PM 34.0 °F - 26.1 °F 73% 29.85 in 10.0 mi Calm Calm - N/A   Clear